Plattsmouth, NE

2:42 AM CST on December 16, 2019 (GMT -0600)
Plattsmouth Municipal

Weather History for KPMV - November, 2019

Change the Weather History Date:

Saturday, November 16, 2019

  Actual Average (WUND) Record (WUND)
Temperature  
Mean Temperature 46 °F -  
Max Temperature 57 °F - - (-1)
Min Temperature 36 °F - - (-1)
Degree Days  
Heating Degree Days 18    
Moisture  
Dew Point 31 °F    
Average Humidity 55    
Maximum Humidity 72    
Minimum Humidity 38    
Precipitation  
Precipitation 0.00 in - - ()
Sea Level Pressure  
Sea Level Pressure 30.06 in    
Wind  
Wind Speed 14 mph (SSE)    
Max Wind Speed 18 mph    
Max Gust Speed 25 mph    
Visibility 10 miles    
Events      
Averages and records for this station are not official NWS values.
T = Trace of Precipitation, MM = Missing Value Source: NWS Daily Summary

Daily Weather History Graph

Daily Weather History Graph

Search for Another Location

Airport or City:

Astronomy

Nov. 16, 2019 Rise Set
Actual Time 7:12 AM CST 5:04 PM CST
Civil Twilight 6:42 AM CST 5:33 PM CST
Nautical Twilight 6:09 AM CST 6:07 PM CST
Astronomical Twilight 5:36 AM CST 6:39 PM CST
Moon 8:37 PM CST 11:07 AM CST
Length of Visible Light 10h 51m
Length of Day
9h 52m
Waning Gibbous, 82% of the Moon is Illuminated
Nov 16
Waning Gibbous
Nov 19
Last Quarter
Nov 26
New
Dec 4
First Quarter
Dec 11
Full

Hourly Weather History & Observations

Time (CST) Temp. Windchill Dew Point Humidity Pressure Visibility Wind Dir Wind Speed Gust Speed Precip Events Conditions
12:15 AM 39.2 °F 32.0 °F 30.9 °F 72% 30.21 in 10.0 mi SSE 11.5 mph - N/A   Clear
12:35 AM 39.0 °F 31.4 °F 30.7 °F 72% 30.21 in 10.0 mi SSE 12.7 mph - N/A   Clear
12:55 AM 39.2 °F 30.8 °F 30.6 °F 71% 30.20 in 10.0 mi SSE 15.0 mph - N/A   Clear
1:15 AM 39.6 °F 31.7 °F 30.2 °F 69% 30.20 in 10.0 mi SSE 13.8 mph 21.9 mph N/A   Clear
1:35 AM 39.4 °F 31.4 °F 30.2 °F 70% 30.19 in 10.0 mi SSE 13.8 mph 19.6 mph N/A   Clear
1:55 AM 39.4 °F 31.8 °F 30.2 °F 70% 30.18 in 10.0 mi SSE 12.7 mph 18.4 mph N/A   Clear
2:15 AM 39.4 °F 31.4 °F 30.2 °F 70% 30.18 in 10.0 mi SSE 13.8 mph 19.6 mph N/A   Clear
2:35 AM 39.2 °F 31.2 °F 30.0 °F 70% 30.18 in 10.0 mi SSE 13.8 mph - N/A   Clear
2:55 AM 38.8 °F 31.2 °F 29.8 °F 70% 30.18 in 10.0 mi SSE 12.7 mph 18.4 mph N/A   Clear
3:35 AM 39.2 °F 30.8 °F 29.3 °F 68% 30.17 in 10.0 mi SSE 15.0 mph 19.6 mph N/A   Clear
3:55 AM 38.5 °F 29.9 °F 29.3 °F 70% 30.16 in 10.0 mi SSE 15.0 mph 19.6 mph N/A   Clear
4:15 AM 38.5 °F 30.3 °F 29.1 °F 69% 30.16 in 10.0 mi SSE 13.8 mph 19.6 mph N/A   Clear
4:35 AM 37.8 °F 28.6 °F 28.9 °F 71% 30.16 in 10.0 mi SSE 16.1 mph - N/A   Clear
4:55 AM 37.4 °F 28.2 °F 28.4 °F 70% 30.16 in 10.0 mi SSE 16.1 mph - N/A   Clear
5:15 AM 37.4 °F 28.2 °F 28.2 °F 69% 30.16 in 10.0 mi SSE 16.1 mph 24.2 mph N/A   Clear
5:35 AM 37.6 °F 28.8 °F 28.0 °F 68% 30.16 in 10.0 mi SSE 15.0 mph 23.0 mph N/A   Clear
5:55 AM 37.9 °F 28.2 °F 28.2 °F 68% 30.16 in 10.0 mi SSE 18.4 mph 23.0 mph N/A   Clear
6:15 AM 37.9 °F 28.5 °F 28.2 °F 68% 30.16 in 10.0 mi SSE 17.3 mph 25.3 mph N/A   Clear
6:35 AM 37.9 °F 29.6 °F 28.2 °F 68% 30.16 in 10.0 mi SSE 13.8 mph 23.0 mph N/A   Clear
6:55 AM 37.6 °F 28.4 °F 28.2 °F 69% 30.16 in 10.0 mi SSE 16.1 mph 19.6 mph N/A   Clear
7:15 AM 37.2 °F 29.1 °F 27.7 °F 68% 30.14 in 10.0 mi SSE 12.7 mph 19.6 mph N/A   Clear
7:55 AM 36.7 °F 28.0 °F 27.1 °F 68% 30.14 in 10.0 mi SE 13.8 mph - N/A   Clear
8:15 AM 36.7 °F 28.0 °F 27.1 °F 68% 30.14 in 10.0 mi SE 13.8 mph 18.4 mph N/A   Clear
8:35 AM 38.5 °F 29.9 °F 27.3 °F 64% 30.14 in 10.0 mi SE 15.0 mph 20.7 mph N/A   Clear
8:55 AM 40.1 °F 32.7 °F 27.5 °F 61% 30.14 in 10.0 mi SE 12.7 mph - N/A   Clear
9:15 AM 41.9 °F 34.6 °F 28.0 °F 58% 30.13 in 10.0 mi SSE 13.8 mph - N/A   Clear
9:35 AM 43.7 °F 36.3 °F 28.4 °F 55% 30.13 in 10.0 mi SE 16.1 mph 20.7 mph N/A   Clear
9:55 AM 44.6 °F 36.9 °F 28.4 °F 53% 30.12 in 10.0 mi SE 18.4 mph 23.0 mph N/A   Clear
10:35 AM 47.3 °F - 29.1 °F 49% 30.10 in 10.0 mi SE 16.1 mph 23.0 mph N/A   Clear
10:55 AM 48.2 °F - 29.3 °F 48% 30.09 in 10.0 mi SSE 16.1 mph 23.0 mph N/A   Clear
11:15 AM 49.8 °F - 30.4 °F 47% 30.07 in 10.0 mi SE 15.0 mph 20.7 mph N/A   Clear
11:35 AM 50.7 °F - 30.6 °F 46% 30.06 in 10.0 mi SE 17.3 mph 23.0 mph N/A   Clear
11:55 AM 51.6 °F - 30.9 °F 45% 30.04 in 10.0 mi SSE 13.8 mph 19.6 mph N/A   Clear
12:15 PM 53.1 °F - 31.3 °F 43% 30.03 in 10.0 mi SE 18.4 mph 25.3 mph N/A   Clear
12:35 PM 54.1 °F - 31.3 °F 42% 30.02 in 10.0 mi SSE 16.1 mph 24.2 mph N/A   Clear
12:55 PM 55.8 °F - 31.8 °F 40% 30.01 in 10.0 mi SSE 16.1 mph 23.0 mph N/A   Clear
1:15 PM 55.6 °F - 32.0 °F 41% 30.00 in 10.0 mi SE 15.0 mph 19.6 mph N/A   Clear
1:35 PM 56.8 °F - 32.0 °F 39% 29.99 in 10.0 mi SSE 13.8 mph 21.9 mph N/A   Clear
1:55 PM 57.2 °F - 32.0 °F 38% 29.99 in 10.0 mi SSE 18.4 mph 24.2 mph N/A   Clear
2:15 PM 57.2 °F - 32.0 °F 38% 29.98 in 10.0 mi SSE 16.1 mph 23.0 mph N/A   Clear
2:35 PM 56.7 °F - 32.0 °F 39% 29.97 in 10.0 mi SE 16.1 mph 20.7 mph N/A   Clear
3:15 PM 56.5 °F - 32.4 °F 40% 29.96 in 10.0 mi SE 16.1 mph 23.0 mph N/A   Clear
3:55 PM 56.1 °F - 32.0 °F 40% 29.95 in 10.0 mi SE 16.1 mph 19.6 mph N/A   Clear
4:15 PM 54.9 °F - 32.9 °F 43% 29.94 in 10.0 mi SE 13.8 mph 21.9 mph N/A   Clear
4:35 PM 54.5 °F - 32.9 °F 44% 29.94 in 10.0 mi SE 12.7 mph 18.4 mph N/A   Clear
4:55 PM 54.1 °F - 33.1 °F 45% 29.94 in 10.0 mi SSE 11.5 mph 18.4 mph N/A   Clear
5:15 PM 54.0 °F - 32.4 °F 44% 29.94 in 10.0 mi SSE 11.5 mph 17.3 mph N/A   Clear
5:35 PM 54.0 °F - 32.4 °F 44% 29.96 in 10.0 mi SSE 10.4 mph - N/A   Clear
5:55 PM 53.2 °F - 33.3 °F 47% 29.97 in 10.0 mi SSE 9.2 mph - N/A   Clear
6:15 PM 53.1 °F - 32.9 °F 46% 29.97 in 10.0 mi SSE 10.4 mph - N/A   Clear
6:35 PM 53.1 °F - 32.5 °F 46% 29.97 in 10.0 mi SSE 10.4 mph 16.1 mph N/A   Clear
6:55 PM 52.2 °F - 33.1 °F 48% 29.98 in 10.0 mi SSE 8.1 mph - N/A   Clear
7:15 PM 51.3 °F - 33.3 °F 50% 29.99 in 10.0 mi SSE 6.9 mph - N/A   Clear
7:35 PM 51.1 °F - 32.4 °F 49% 29.99 in 10.0 mi SSE 11.5 mph 17.3 mph N/A   Clear
7:55 PM 50.5 °F - 32.0 °F 49% 29.99 in 10.0 mi SSE 10.4 mph - N/A   Clear
8:15 PM 50.2 °F - 32.0 °F 50% 30.00 in 10.0 mi SSE 11.5 mph - N/A   Clear
8:35 PM 50.0 °F - 31.6 °F 49% 29.99 in 10.0 mi SSE 11.5 mph 17.3 mph N/A   Clear
8:55 PM 49.3 °F - 31.6 °F 51% 30.00 in 10.0 mi SSE 10.4 mph - N/A   Clear
9:15 PM 49.1 °F - 31.6 °F 51% 30.00 in 10.0 mi SSE 10.4 mph - N/A   Clear
9:55 PM 48.4 °F - 31.6 °F 52% 29.99 in 10.0 mi SSE 10.4 mph - N/A   Clear
10:15 PM 48.7 °F - 31.1 °F 51% 29.98 in 10.0 mi SSE 11.5 mph - N/A   Clear
10:35 PM 48.4 °F - 31.6 °F 52% 29.97 in 10.0 mi SSE 10.4 mph - N/A   Clear
10:55 PM 48.2 °F - 31.6 °F 53% 29.97 in 10.0 mi South 11.5 mph - N/A   Clear
11:15 PM 47.5 °F - 32.0 °F 55% 29.97 in 10.0 mi SSE 12.7 mph - N/A   Scattered Clouds
11:35 PM 46.6 °F - 32.0 °F 57% 29.96 in 10.0 mi South 11.5 mph - N/A   Mostly Cloudy
11:55 PM 46.4 °F 41.9 °F 32.0 °F 57% 29.96 in 10.0 mi South 9.2 mph - N/A   Mostly Cloudy